Погода в Кусарах

Азербайджан     41°25′49″N   48°26′31″E
темп.,
°C
ветер,
м/с
пор.,
м/с
влажн.,
%
обл.,
%
осадки,
мм/ч
давл.,
гПа
погр.,
м
4 августа, ср
ср401:00+24юз32298 0.0 101220
04:00+24зюз432612 0.0 101233
07:00+27зюз332398 0.0 101361
10:00+31вюв001954 0.0 1013373
13:00+37в561232 0.0 10122689
16:00+35всв64145 0.0 10111499
19:00+31всв33225 0.0 1013184
22:00+24юз33310 0.0 101420
5 августа, чт
чт501:00+24зюз33310 0.0 101324
04:00+24юз33300 0.0 101228
07:00+27зюз33270 0.0 101365
10:00+34с43170 0.0 10121678
13:00+37св74150 0.0 10112944
16:00+34св641941 0.0 10111485
19:00+31св332398 0.0 1012166
22:00+25зюз33339 0.0 101335
6 августа, пт
пт601:00+25юз43332 0.0 101242
04:00+25зюз33310 0.0 101128
07:00+27юз22280 0.0 101146
10:00+34в32180 0.0 10101212
13:00+37в75140 0.0 10092114
16:00+35в77170 0.0 10081100
19:00+31в34260 0.0 1008408
22:00+25юз33320 0.0 100821
7 августа, сб
сб701:00+25юз32260 0.0 100819
04:00+24юз32260 0.0 100716
07:00+27юз22210 0.0 100636
10:00+38вюв34110 0.0 10051487
13:00+42в3480 0.0 10023136
16:00+43вюв8780 0.0 10003474
19:00+37в610150 0.0 1001339
22:00+29зюз45260 0.0 100462
8 августа, вс
вс801:00+28юз33240 0.0 100523
04:00+27з332673 0.0 100618
07:00+29ююз22246 0.0 100845
10:00+34всв432818 0.0 10091022
13:00+35св643032 0.0 10091579
16:00+35св53280 0.0 10091503
19:00+33всв32320 0.0 1009408
22:00+27зюз33432 0.0 101027